Location: Saint-Palais-sur-Mer
(45.6429°N, 1.0859°W)
Time: 18:17:39
(UTC+02:00)

BlueWalker 3 - Pass Details

Date: 17 May 2026
Orbit: 447 x 457 km, 53.2° (Epoch: 5 June)

Event Time Altitude Azimuth Distance (km) Brightness Sun altitude
Rises 05:11:48 0° 298° (WNW) 2,448 5.3 -11.9°
Reaches altitude 10° 05:14:10 10° 312° (NW) 1,577 4.4 -11.7°
Maximum altitude 05:17:13 26° 11° (NNE) 911 3.9 -11.3°
Drops below altitude 10° 05:20:17 10° 71° (ENE) 1,577 5.6 -10.9°
Sets 05:22:38 0° 84° (E) 2,449 6.4 -10.6°
